OPTUS C1

Last updated on Sun Jun 21 2026 00:03:03 GMT+0000 (Coordinated Universal Time)

1 27831U 03028B 26170.56734134 -.00000159 00000+0 00000+0 0 9997 2 27831 6.8966 69.3822 0005580 14.9031 183.4988 1.00272247 53086
UTC large
Height (km)
Speed (km/s)
/
Latitude / Longitude
Inclination (degrees)
Orbital Period (minutes)
Azimuth
Elevation
Range (km)
Doppler Factor

Next 0 passes for location: London (51.5072 / 0.1276)

No passes found over London.
OPTUS C1